Location: Azul
(36.7830°S, 59.8500°W)
Time: 00:31:28
(UTC-03:00)

DELFI C3 - Pass Details

Date: 25 October 2021
Orbit: 529 x 543 km, 97.4° (Epoch: 30 November)

Event Time Altitude Azimuth Distance (km) Brightness Sun altitude
Rises 21:16:02 0° 176° (S) 2,738 ? -20.7°
Reaches altitude 10° 21:18:14 10° 181° (S) 1,834 ? -21.1°
Maximum altitude 21:22:02 46° 254° (WSW) 742 ? -21.7°
Drops below altitude 10° 21:25:46 10° 328° (NNW) 1,799 ? -22.3°
Enters shadow 21:25:50 10° 328° (NNW) 1,823 ? -22.3°
